Date,TemperatureHighF,TemperatureAvgF,TemperatureLowF,DewpointHighF,DewpointAvgF,DewpointLowF,HumidityHigh,HumidityAvg,HumidityLow,PressureMaxIn,PressureMinIn,WindSpeedMaxMPH,WindSpeedAvgMPH,GustSpeedMaxMPH,PrecipitationSumIn
2013-7-1,94.0,83.3,75.0,44.0,36.1,27.0,28,19,14,0.00,40.00,10,6,21,0.00
2013-7-2,93.0,82.2,75.0,46.0,37.8,34.0,28,21,14,0.00,40.00,13,8,28,0.00
2013-7-3,97.0,83.8,75.0,39.0,36.5,34.0,25,19,12,0.00,40.00,14,9,25,0.00
2013-7-4,95.0,83.3,75.0,41.0,37.5,34.0,24,20,15,0.00,40.00,14,7,24,0.00
2013-7-5,92.0,80.8,72.0,47.0,36.8,32.0,31,21,13,0.00,40.00,13,6,26,0.00
2013-7-6,83.0,76.5,70.0,40.0,35.3,30.0,28,23,18,0.00,40.00,17,6,29,0.00
2013-7-7,87.0,76.8,69.0,33.0,25.5,15.0,23,15,10,0.00,40.00,19,7,28,0.00
2013-7-8,89.0,78.6,67.0,31.0,20.6,15.0,16,12,7,0.00,40.00,19,9,39,0.00
2013-7-9,90.0,80.5,69.0,44.0,31.9,15.0,26,18,11,0.00,40.00,14,7,26,0.00
2013-7-10,90.0,76.0,73.0,47.0,29.8,-99.9,31,20,12,0.00,40.00,11,8,21,0.00
2013-7-11,73.0,69.1,64.0,54.0,44.6,33.0,56,43,25,0.00,40.00,9,4,14,0.00
2013-7-12,83.0,70.2,63.0,52.0,44.7,42.0,53,41,25,0.00,40.00,12,5,26,0.00
2013-7-13,87.0,74.6,66.0,48.0,43.2,36.0,42,33,24,0.00,40.00,9,4,19,0.00
2013-7-14,88.0,76.5,66.0,44.0,39.1,33.0,36,27,20,0.00,40.00,9,6,25,0.00
2013-7-15,87.0,76.2,67.0,46.0,41.5,37.0,40,30,18,0.00,40.00,18,8,30,0.00
2013-7-16,82.0,81.7,81.0,34.0,29.3,24.0,18,15,12,0.00,40.00,22,19,36,0.00
2013-7-17,83.0,71.2,63.0,17.0,12.0,2.0,16,11,5,0.00,40.00,12,8,23,0.00
2013-7-18,88.0,78.0,68.0,24.0,18.7,12.0,14,11,8,0.00,40.00,11,6,20,0.00
2013-7-19,90.0,79.7,72.0,52.0,35.7,15.0,34,22,10,0.00,40.00,10,5,19,0.00
2013-7-20,84.0,74.1,69.0,55.0,46.4,-99.9,54,39,25,0.00,40.00,11,5,21,0.00
2013-7-21,74.0,67.1,60.0,60.0,55.5,48.0,86,67,53,0.00,40.00,19,5,30,0.49
2013-7-22,75.0,67.7,60.0,61.0,56.4,52.0,82,68,53,0.00,40.00,14,7,22,0.01
2013-7-23,81.0,70.8,61.0,56.0,52.8,48.0,76,55,34,0.00,40.00,11,6,21,0.00
2013-7-24,85.0,76.8,68.0,51.0,48.2,41.0,53,38,26,0.00,40.00,15,5,26,0.00
2013-7-25,88.0,77.6,64.0,50.0,43.8,38.0,57,31,21,0.00,40.00,19,8,28,0.09
2013-7-26,74.0,69.7,64.0,61.0,51.2,45.0,80,53,39,0.00,40.00,12,5,20,0.10
2013-7-27,81.0,71.9,65.0,56.0,50.9,43.0,63,48,35,0.00,40.00,9,4,21,0.01
2013-7-28,82.0,72.9,65.0,47.0,41.5,32.0,44,33,19,0.00,40.00,18,8,28,0.00
2013-7-29,82.0,73.1,64.0,35.0,28.5,19.0,28,20,10,0.00,40.00,18,10,32,0.00
2013-7-30,82.0,73.5,67.0,44.0,37.6,28.0,35,27,15,0.00,40.00,20,11,32,0.00
2013-7-31,85.0,75.4,67.0,48.0,39.3,-1.0,42,30,5,0.00,40.00,29,13,42,0.00